When you browse on this site, cookies collect data to enhance your experience and personalize the content and advertising you see.
Visit our Privacy Policy to learn more. By continuing to use the site, you agree to this use of cookies and data.
  • Em Portugal
  • Lista de países
  • Para 7 dias
  • Temperatura da água
  • Mapas de satélite
  • Mapa do tempo
  • Widgets de tempo
  • user-avatar
    Iniciar Sessão

    Previsão horária em Sennaya

    Hoje, 18 Abril, Quinta-feira

    Tempo Temperatura Precipitação Vento Pressão Humidade
    00:00 +6°C° 0 mm 2 m/s 760 mmHg 72%
    01:00 +6°C° 0 mm 1 m/s 760 mmHg 73%
    02:00 +6°C° 0 mm 1 m/s 760 mmHg 72%
    03:00 +6°C° 0 mm 1 m/s 760 mmHg 72%
    04:00 +4°C° 0 mm 0 m/s 760 mmHg 73%
    05:00 +4°C° 0 mm 0 m/s 760 mmHg 74%
    06:00 +6°C° 0 mm 0 m/s 760 mmHg 68%
    07:00 +8°C° 0 mm 1 m/s 760 mmHg 62%
    08:00 +10°C° 0 mm 1 m/s 760 mmHg 56%
    09:00 +10°C° 0 mm 2 m/s 759 mmHg 53%
    10:00 +13°C° 0 mm 2 m/s 759 mmHg 49%
    11:00 +13°C° 0 mm 3 m/s 759 mmHg 45%
    12:00 +14°C° 0 mm 3 m/s 758 mmHg 43%
    13:00 +16°C° 0 mm 3 m/s 758 mmHg 41%
    14:00 +15°C° 0 mm 4 m/s 757 mmHg 38%
    15:00 +15°C° 0 mm 4 m/s 757 mmHg 39%
    16:00 +15°C° 0 mm 4 m/s 756 mmHg 41%
    17:00 +15°C° 0 mm 4 m/s 756 mmHg 42%
    18:00 +14°C° 0 mm 4 m/s 756 mmHg 45%
    19:00 +13°C° 0 mm 4 m/s 756 mmHg 48%
    20:00 +11°C° 0 mm 4 m/s 756 mmHg 52%
    21:00 +10°C° 0 mm 4 m/s 756 mmHg 55%
    22:00 +8°C° 0 mm 4 m/s 756 mmHg 57%
    23:00 +6°C° 0 mm 4 m/s 757 mmHg 60%

    Amanhã, 19 Abril, Sexta-feira

    Tempo Temperatura Precipitação Vento Pressão Humidade
    00:00 +6°C° 0 mm 5 m/s 757 mmHg 63%
    01:00 +5°C° 0 mm 5 m/s 757 mmHg 65%
    02:00 +5°C° 0 mm 5 m/s 757 mmHg 68%
    03:00 +3°C° 0 mm 5 m/s 757 mmHg 71%
    04:00 +3°C° 0 mm 5 m/s 757 mmHg 73%
    05:00 +3°C° 0 mm 5 m/s 758 mmHg 76%
    06:00 +5°C° 0 mm 5 m/s 758 mmHg 73%
    07:00 +6°C° 0 mm 5 m/s 758 mmHg 70%
    08:00 +7°C° 0 mm 6 m/s 759 mmHg 67%
    09:00 +8°C° 0 mm 5 m/s 759 mmHg 62%
    10:00 +10°C° 0 mm 5 m/s 759 mmHg 57%
    11:00 +12°C° 0 mm 5 m/s 759 mmHg 52%
    12:00 +13°C° 0.1 mm 4 m/s 759 mmHg 49%
    13:00 +13°C° 0.1 mm 4 m/s 759 mmHg 45%
    14:00 +14°C° 0.1 mm 4 m/s 759 mmHg 42%
    15:00 +13°C° 0 mm 4 m/s 759 mmHg 44%
    16:00 +13°C° 0 mm 4 m/s 759 mmHg 45%
    17:00 +12°C° 0 mm 4 m/s 759 mmHg 47%
    18:00 +11°C° 0 mm 3 m/s 759 mmHg 52%
    19:00 +9°C° 0 mm 3 m/s 759 mmHg 57%
    20:00 +8°C° 0 mm 2 m/s 759 mmHg 61%
    21:00 +8°C° 0 mm 2 m/s 759 mmHg 62%
    22:00 +7°C° 0 mm 2 m/s 759 mmHg 63%
    23:00 +7°C° 0 mm 2 m/s 760 mmHg 64%

    Depois de amanhã, 20 Abril, Sábado

    Tempo Temperatura Precipitação Vento Pressão Humidade
    00:00 +8°C° 0 mm 1 m/s 759 mmHg 63%
    01:00 +8°C° 0 mm 1 m/s 759 mmHg 62%
    02:00 +7°C° 0 mm 0 m/s 759 mmHg 61%
    03:00 +7°C° 0 mm 0 m/s 759 mmHg 62%
    04:00 +7°C° 0 mm 1 m/s 759 mmHg 63%
    05:00 +6°C° 0 mm 1 m/s 759 mmHg 65%
    06:00 +8°C° 0 mm 1 m/s 759 mmHg 60%
    07:00 +9°C° 0 mm 1 m/s 759 mmHg 56%
    08:00 +10°C° 0 mm 1 m/s 759 mmHg 52%
    09:00 +12°C° 0 mm 1 m/s 758 mmHg 47%
    10:00 +13°C° 0 mm 1 m/s 758 mmHg 42%
    11:00 +14°C° 0 mm 1 m/s 758 mmHg 38%
    12:00 +14°C° 0 mm 1 m/s 758 mmHg 37%
    13:00 +15°C° 0 mm 1 m/s 757 mmHg 36%
    14:00 +15°C° 0 mm 1 m/s 757 mmHg 36%
    15:00 +15°C° 0 mm 2 m/s 757 mmHg 39%
    16:00 +14°C° 0 mm 2 m/s 756 mmHg 42%
    17:00 +14°C° 0 mm 2 m/s 756 mmHg 45%
    18:00 +13°C° 0.1 mm 1 m/s 756 mmHg 50%
    19:00 +12°C° 0.1 mm 1 m/s 756 mmHg 56%
    20:00 +11°C° 0.1 mm 1 m/s 756 mmHg 61%
    21:00 +11°C° 0.2 mm 1 m/s 756 mmHg 65%
    22:00 +10°C° 0.2 mm 1 m/s 756 mmHg 70%
    23:00 +10°C° 0.2 mm 1 m/s 756 mmHg 74%

    21 Abril, Domingo

    Tempo Temperatura Precipitação Vento Pressão Humidade
    00:00 +8°C° 0.6 mm 2 m/s 756 mmHg 77%
    01:00 +8°C° 0.6 mm 2 m/s 756 mmHg 79%
    02:00 +7°C° 0.6 mm 2 m/s 756 mmHg 82%
    03:00 +7°C° 0.6 mm 2 m/s 756 mmHg 83%
    04:00 +7°C° 0.6 mm 2 m/s 756 mmHg 84%
    05:00 +7°C° 0.6 mm 2 m/s 755 mmHg 85%
    06:00 +7°C° 0.3 mm 3 m/s 756 mmHg 82%
    07:00 +7°C° 0.3 mm 3 m/s 756 mmHg 79%
    08:00 +7°C° 0.3 mm 4 m/s 756 mmHg 76%
    09:00 +10°C° 0 mm 4 m/s 756 mmHg 66%
    10:00 +10°C° 0 mm 5 m/s 756 mmHg 56%
    11:00 +13°C° 0 mm 5 m/s 756 mmHg 46%
    12:00 +13°C° 0 mm 5 m/s 756 mmHg 44%
    13:00 +14°C° 0 mm 5 m/s 756 mmHg 43%
    14:00 +14°C° 0 mm 5 m/s 756 mmHg 41%
    15:00 +14°C° 0 mm 5 m/s 756 mmHg 44%
    16:00 +13°C° 0 mm 5 m/s 756 mmHg 46%
    17:00 +12°C° 0 mm 5 m/s 756 mmHg 48%
    18:00 +11°C° 0 mm 4 m/s 756 mmHg 52%
    19:00 +10°C° 0 mm 4 m/s 757 mmHg 55%
    20:00 +9°C° 0 mm 3 m/s 757 mmHg 59%
    21:00 +8°C° 0 mm 3 m/s 757 mmHg 60%
    22:00 +8°C° 0 mm 3 m/s 758 mmHg 61%
    23:00 +7°C° 0 mm 3 m/s 758 mmHg 62%

    22 Abril, Segunda-feira

    Tempo Temperatura Precipitação Vento Pressão Humidade
    00:00 +7°C° 0 mm 3 m/s 758 mmHg 63%
    01:00 +7°C° 0 mm 3 m/s 758 mmHg 63%
    02:00 +7°C° 0 mm 2 m/s 758 mmHg 64%
    03:00 +7°C° 0 mm 2 m/s 759 mmHg 64%
    04:00 +7°C° 0 mm 2 m/s 759 mmHg 64%
    05:00 +7°C° 0 mm 2 m/s 759 mmHg 65%
    06:00 +8°C° 0 mm 3 m/s 759 mmHg 61%
    07:00 +9°C° 0 mm 3 m/s 759 mmHg 57%
    08:00 +10°C° 0 mm 3 m/s 760 mmHg 53%
    09:00 +11°C° 0 mm 3 m/s 760 mmHg 48%
    10:00 +12°C° 0 mm 4 m/s 760 mmHg 44%
    11:00 +13°C° 0 mm 4 m/s 760 mmHg 39%
    12:00 +13°C° 0 mm 3 m/s 760 mmHg 39%
    13:00 +14°C° 0 mm 3 m/s 760 mmHg 39%
    14:00 +14°C° 0 mm 3 m/s 760 mmHg 38%
    15:00 +14°C° 0 mm 3 m/s 760 mmHg 39%
    16:00 +14°C° 0 mm 3 m/s 760 mmHg 40%
    17:00 +15°C° 0 mm 2 m/s 760 mmHg 41%
    18:00 +13°C° 0 mm 2 m/s 760 mmHg 46%
    19:00 +12°C° 0 mm 2 m/s 760 mmHg 50%
    20:00 +9°C° 0 mm 2 m/s 761 mmHg 55%
    21:00 +9°C° 0 mm 2 m/s 761 mmHg 57%
    22:00 +8°C° 0 mm 2 m/s 761 mmHg 59%
    23:00 +8°C° 0 mm 2 m/s 762 mmHg 61%

    23 Abril, Terça-feira

    Tempo Temperatura Precipitação Vento Pressão Humidade
    00:00 +8°C° 0 mm 2 m/s 762 mmHg 61%
    01:00 +8°C° 0 mm 2 m/s 762 mmHg 61%
    02:00 +8°C° 0 mm 2 m/s 762 mmHg 61%
    03:00 +8°C° 0 mm 2 m/s 762 mmHg 60%
    04:00 +8°C° 0 mm 2 m/s 763 mmHg 60%
    05:00 +8°C° 0 mm 2 m/s 763 mmHg 60%
    06:00 +9°C° 0 mm 2 m/s 763 mmHg 57%
    07:00 +12°C° 0 mm 2 m/s 763 mmHg 55%
    08:00 +13°C° 0 mm 2 m/s 763 mmHg 52%
    09:00 +13°C° 0 mm 3 m/s 763 mmHg 47%
    10:00 +14°C° 0 mm 3 m/s 763 mmHg 42%
    11:00 +14°C° 0 mm 3 m/s 763 mmHg 38%
    12:00 +14°C° 0 mm 3 m/s 763 mmHg 38%
    13:00 +16°C° 0 mm 3 m/s 763 mmHg 38%
    14:00 +16°C° 0 mm 2 m/s 763 mmHg 38%
    15:00 +16°C° 0 mm 3 m/s 762 mmHg 39%
    16:00 +16°C° 0 mm 3 m/s 762 mmHg 40%
    17:00 +14°C° 0 mm 3 m/s 762 mmHg 41%
    18:00 +14°C° 0 mm 2 m/s 762 mmHg 45%
    19:00 +13°C° 0 mm 2 m/s 762 mmHg 49%
    20:00 +10°C° 0 mm 2 m/s 762 mmHg 54%
    21:00 +9°C° 0 mm 2 m/s 762 mmHg 56%
    22:00 +9°C° 0 mm 2 m/s 762 mmHg 57%
    23:00 +8°C° 0 mm 2 m/s 762 mmHg 59%
    Mostrar mais